Date,TemperatureHighF,TemperatureAvgF,TemperatureLowF,DewpointHighF,DewpointAvgF,DewpointLowF,HumidityHigh,HumidityAvg,HumidityLow,PressureMaxIn,PressureMinIn,WindSpeedMaxMPH,WindSpeedAvgMPH,GustSpeedMaxMPH,PrecipitationSumIn
2014-1-1,79.4,74.7,69.6,72.1,69.0,63.3,92,83,72,30.17,30.01,20,10,20,0.01
2014-1-2,83.9,76.0,70.4,71.4,68.3,64.5,95,78,56,30.01,29.83,25,9,25,0.00
2014-1-3,71.9,62.4,56.2,69.1,54.3,45.0,92,75,60,30.16,29.85,27,12,27,0.00
2014-1-4,72.6,69.0,65.1,67.8,61.6,53.5,92,77,66,30.16,30.03,16,7,16,0.05
2014-1-5,79.2,72.2,68.7,72.2,68.7,66.7,97,89,75,30.04,29.91,29,6,29,0.34
2014-1-6,81.8,70.3,54.2,71.6,63.0,32.3,98,79,37,30.17,29.93,29,9,29,0.00
2014-1-7,56.5,50.7,45.9,49.4,41.5,28.4,87,72,45,30.28,30.16,27,14,27,0.00
2014-1-8,69.6,61.8,49.0,64.5,58.8,45.3,96,90,82,30.29,30.19,22,12,22,0.12
2014-1-9,73.7,71.2,69.2,71.4,68.5,64.5,97,91,84,30.22,30.09,28,14,28,2.76
2014-1-10,78.8,73.4,68.1,72.9,70.0,65.1,97,89,80,30.15,30.04,18,7,18,0.21
2014-1-11,83.2,76.4,72.4,73.8,71.4,68.7,96,85,69,30.08,29.92,21,9,21,0.03
2014-1-12,75.3,68.9,60.6,70.3,62.0,56.7,95,80,59,30.14,29.97,18,7,18,0.00
2014-1-13,79.8,71.6,60.4,69.9,66.0,57.5,93,83,66,30.13,29.99,15,5,15,0.00
2014-1-14,70.3,70.3,70.3,67.9,67.9,67.9,92,92,92,29.99,29.99,4,3,4,0.00
2014-1-15,70.3,70.3,70.3,67.9,67.9,67.9,92,92,92,29.99,29.99,4,4,4,0.00
2014-1-16,70.3,54.5,46.7,67.9,36.9,26.1,92,53,31,30.11,29.99,22,10,22,0.00
2014-1-17,65.7,52.9,42.0,46.4,38.4,33.2,80,59,38,30.18,30.07,13,5,13,0.00
2014-1-18,65.3,55.4,47.7,49.6,41.0,32.4,88,61,32,30.21,30.09,17,6,17,0.00
2014-1-19,68.3,54.8,41.0,51.4,38.0,27.2,79,56,26,30.23,30.11,16,6,16,0.00
2014-1-20,74.8,63.1,52.4,57.9,53.1,46.8,92,72,41,30.15,30.00,20,5,20,0.00
2014-1-21,71.2,64.2,59.1,62.6,58.7,56.4,94,83,66,30.02,29.82,24,9,24,0.00
2014-1-22,61.5,55.0,47.9,59.3,39.3,29.6,94,58,33,30.14,29.84,26,10,26,0.00
2014-1-23,67.5,54.9,41.5,54.6,45.3,33.1,85,70,59,30.26,30.12,17,7,17,0.00
2014-1-24,66.5,58.5,51.6,54.1,51.4,48.1,90,78,61,30.35,30.19,26,11,26,0.00
2014-1-25,74.9,61.8,49.4,60.8,53.9,47.2,93,77,55,30.20,30.01,12,3,12,0.00
2014-1-26,78.1,65.3,54.3,62.1,57.0,53.1,96,77,45,30.06,29.95,10,3,10,0.00
2014-1-27,83.6,71.7,61.4,68.4,62.8,59.5,94,75,49,30.00,29.89,18,5,18,0.00
2014-1-28,81.5,70.9,61.4,69.1,64.9,59.9,96,83,56,30.05,29.92,15,5,15,0.00
2014-1-29,70.3,65.5,61.6,68.8,63.9,60.3,98,95,91,30.05,29.94,21,6,21,0.14
2014-1-30,64.6,62.8,60.0,64.1,62.2,59.4,99,98,97,30.09,29.99,14,5,14,2.56
2014-1-31,81.8,72.1,62.1,73.7,69.7,61.8,99,93,75,30.06,29.97,18,5,18,2.81
2014-2-1,81.3,75.0,71.2,72.7,70.7,69.7,97,87,69,30.11,30.02,17,6,17,0.01
2014-2-2,80.3,75.1,69.6,71.0,69.2,66.0,94,83,64,30.12,30.03,18,7,18,0.00
2014-2-3,81.1,75.0,71.6,72.8,70.7,69.2,95,87,73,30.08,29.99,16,7,16,0.09
2014-2-4,80.9,75.8,71.8,72.1,70.4,68.8,96,84,68,30.11,30.01,20,8,20,0.00
2014-2-5,83.0,74.8,68.2,72.7,70.7,66.4,96,88,68,30.06,29.96,18,6,18,0.74
2014-2-6,79.4,73.4,70.4,73.4,70.7,69.5,97,91,80,30.09,29.99,14,3,14,0.00
2014-2-7,77.7,71.9,68.1,70.1,67.9,66.6,95,88,76,30.08,30.02,15,7,15,0.00
2014-2-8,82.6,71.2,66.3,72.9,68.3,64.4,99,91,69,30.07,29.96,18,4,18,0.00
2014-2-9,77.5,67.5,62.9,67.7,63.1,58.4,97,87,66,30.06,29.97,20,7,20,0.00
2014-2-10,78.2,68.8,61.6,65.8,62.6,60.2,96,82,63,30.06,29.97,15,5,15,0.00
2014-2-11,79.6,72.5,65.7,69.5,66.2,62.8,93,81,70,30.04,29.94,13,5,13,0.00
2014-2-12,80.8,71.4,62.5,70.1,65.4,61.3,96,82,62,30.00,29.77,31,9,31,0.34
2014-2-13,70.0,66.0,61.4,66.0,59.2,48.6,97,80,58,29.85,29.69,28,15,28,0.03
2014-2-18,76.3,76.3,76.3,58.9,58.9,58.9,55,55,55,30.20,30.20,9,9,9,0.00
2014-8-13,93.7,82.8,75.5,78.2,75.7,72.3,96,81,50,30.01,29.93,8,3,18,0.00
2014-8-14,93.6,81.9,77.6,78.3,76.3,74.7,96,84,57,30.01,29.93,7,2,14,0.00
2014-8-15,91.3,77.6,72.2,78.0,73.9,70.7,97,90,61,30.06,29.98,10,2,12,0.61
2014-8-16,92.1,80.5,74.3,79.7,76.0,72.6,97,87,59,30.09,30.02,6,1,9,0.47
2014-8-17,91.0,82.4,76.4,78.7,76.6,74.2,97,84,63,30.08,29.99,8,1,10,0.23
2014-8-18,92.4,84.5,78.6,78.4,76.9,75.0,95,79,57,30.03,29.93,7,2,9,0.00
2014-8-19,96.7,89.0,82.7,77.8,75.3,71.0,83,65,45,30.01,29.91,12,5,12,0.00
2014-8-20,96.5,84.7,79.2,79.6,76.5,70.8,94,77,48,30.06,29.95,14,2,14,0.00
2014-8-21,92.9,85.1,78.5,80.4,77.2,74.7,96,78,61,30.09,30.01,14,4,14,0.00
2014-8-22,94.0,86.5,78.6,79.7,76.3,73.6,95,72,53,30.05,29.94,12,4,12,0.00
2014-8-23,94.1,84.9,78.2,79.0,76.5,73.5,97,77,55,29.96,29.82,13,4,17,0.00
2014-8-24,93.8,85.0,77.6,78.1,75.8,71.4,96,76,49,29.84,29.70,15,4,17,0.00
2014-8-25,88.4,82.2,78.0,80.3,76.8,72.4,95,84,71,29.77,29.69,24,11,24,0.11
2014-8-26,88.8,84.0,80.4,74.9,72.9,69.4,78,70,57,29.87,29.73,23,12,23,0.00
2014-8-27,91.1,82.9,75.2,76.2,73.6,69.6,94,74,54,29.95,29.84,18,5,18,0.00
2014-8-28,86.5,82.1,77.5,79.1,76.1,73.4,95,82,72,29.98,29.90,17,4,17,0.36
2014-8-29,90.6,85.3,76.9,79.9,77.6,72.7,96,78,63,30.08,29.96,20,6,20,0.69
2014-8-30,88.8,83.9,77.4,79.3,77.2,69.6,89,80,66,30.08,30.01,21,7,21,0.06
2014-8-31,88.9,83.7,79.3,78.2,76.2,73.3,92,79,63,30.09,30.02,15,6,16,0.00
2014-9-1,89.2,84.1,80.2,77.4,75.3,72.7,88,76,60,30.08,29.99,14,6,14,0.00
2014-9-2,87.7,83.1,77.1,76.8,74.7,73.0,94,76,63,30.05,29.95,16,7,16,0.00
2014-9-3,86.7,80.0,75.3,76.9,74.1,70.9,95,83,64,30.02,29.93,22,4,22,0.09
2014-9-4,84.9,78.3,74.9,78.1,74.3,70.7,96,88,76,30.06,29.98,20,3,20,0.11
2014-9-5,89.9,82.5,75.0,80.2,76.6,73.7,98,83,67,30.08,29.98,18,5,18,0.12
2014-9-6,85.8,77.3,72.5,79.6,75.3,70.0,97,94,74,30.04,29.93,21,2,21,0.36
2014-9-7,86.8,79.6,74.6,78.9,75.3,71.7,95,87,68,30.00,29.92,17,3,17,0.03
2014-9-8,89.0,81.0,72.3,78.9,74.4,70.2,98,81,63,30.03,29.94,17,5,17,0.27
2014-9-9,88.4,82.7,78.3,75.9,74.1,72.2,87,76,60,30.02,29.94,16,6,16,0.00
2014-9-10,86.6,81.3,77.5,77.3,74.1,71.1,89,79,65,29.99,29.91,18,6,18,0.00
2014-9-11,84.7,77.4,73.6,76.9,74.8,72.7,97,92,74,29.98,29.89,15,2,15,0.45
2014-9-12,86.8,81.2,73.8,76.1,73.8,72.0,97,79,63,29.97,29.87,20,9,20,0.55
2014-9-13,84.8,76.7,71.2,77.8,73.3,68.5,97,90,73,30.07,29.94,30,5,30,0.99
2014-9-14,88.5,77.3,70.6,75.9,72.0,68.8,97,85,59,30.11,30.00,30,5,30,0.18
2014-9-15,88.2,80.1,72.4,78.6,73.4,69.7,96,81,61,30.12,30.05,15,3,15,0.00
2014-9-16,88.1,81.1,74.4,75.9,74.4,72.8,96,81,63,30.03,29.89,8,1,10,0.00
2014-9-17,88.5,80.0,74.3,75.9,73.1,71.2,97,81,61,29.93,29.84,23,6,23,0.00
2014-9-18,92.4,79.6,73.1,76.7,73.7,71.0,95,83,58,29.90,29.83,13,3,13,0.00
2014-9-19,88.7,77.2,71.2,77.6,74.4,69.7,98,92,67,29.92,29.84,14,2,14,0.54
2014-9-20,88.0,77.0,72.8,76.7,73.7,71.6,97,90,64,29.92,29.83,23,5,23,0.39
2014-9-21,89.8,78.2,74.5,76.6,74.2,73.0,97,88,60,30.00,29.88,22,3,22,0.88
2014-9-22,90.2,77.9,73.1,78.7,74.6,71.9,98,90,63,30.02,29.90,12,2,12,0.06
2014-9-23,84.8,79.1,73.1,77.3,73.6,72.0,97,84,69,30.00,29.89,22,5,22,0.05
2014-9-24,88.8,79.8,73.4,76.6,74.5,70.2,97,85,64,30.02,29.92,16,3,16,0.10
2014-9-25,85.6,79.8,74.9,78.8,75.7,73.3,97,88,75,30.02,29.93,20,5,20,0.58
2014-9-26,85.3,78.2,73.0,78.1,75.0,72.1,98,90,73,29.97,29.89,21,4,21,0.29
2014-9-27,87.0,82.4,79.0,77.8,76.3,74.6,92,82,70,29.96,29.88,16,7,16,0.00
2014-9-28,87.4,82.0,77.7,77.4,75.6,73.9,92,82,68,29.96,29.87,15,5,15,0.00
2014-9-29,88.1,80.5,73.3,78.8,75.3,72.4,98,85,66,29.91,29.77,23,4,23,0.30
2014-9-30,90.5,79.4,74.1,78.6,75.5,73.2,97,89,63,29.83,29.76,33,4,33,0.31
2014-10-1,89.0,79.8,75.3,80.3,75.9,73.2,97,88,70,29.95,29.81,18,4,18,0.17
2014-10-2,92.3,81.8,75.7,78.6,75.7,71.5,98,83,54,30.00,29.89,15,5,15,0.00
2014-10-3,93.0,82.2,73.5,79.0,76.0,72.3,97,83,58,30.00,29.88,16,3,16,0.21
2014-10-4,88.3,80.0,73.5,78.2,74.1,66.2,97,83,61,29.93,29.77,22,8,22,0.01
2014-10-5,84.3,74.1,63.8,69.3,64.2,59.1,87,72,58,29.97,29.85,17,8,17,0.00
2014-10-6,81.5,75.7,68.8,69.6,67.0,65.5,92,75,61,30.03,29.93,18,6,18,0.00
2014-10-7,83.1,78.5,71.7,76.4,72.8,68.6,95,83,72,30.06,29.97,21,4,21,0.23
2014-10-8,85.1,79.7,74.7,77.3,73.0,68.9,96,81,67,30.08,29.99,20,6,20,0.00
2014-10-9,85.3,80.1,73.0,74.0,72.0,69.4,93,77,63,30.04,29.95,20,7,20,0.00
2014-10-10,84.1,81.0,76.9,74.0,72.3,70.8,85,75,68,30.01,29.92,20,10,20,0.01
2014-10-11,85.5,81.1,77.8,74.1,71.9,69.8,84,74,61,29.99,29.91,15,7,15,0.00
2014-10-12,85.8,80.8,76.5,73.2,71.4,67.9,85,74,59,30.03,29.94,16,7,16,0.00
2014-10-13,84.0,81.1,78.2,75.4,72.6,70.4,82,76,69,30.05,29.98,20,11,20,0.00
2014-10-14,87.2,81.9,74.6,77.2,74.9,69.9,94,80,69,30.00,29.89,24,9,24,0.55
2014-10-15,87.5,78.2,73.8,78.5,74.6,70.8,96,89,69,29.96,29.84,17,3,17,0.23
2014-10-16,84.2,75.3,66.9,74.0,65.0,61.0,97,72,49,29.93,29.83,20,7,20,0.06
2014-10-17,85.8,73.3,63.6,67.8,61.0,46.8,90,68,28,29.94,29.86,13,4,13,0.00
2014-10-18,87.3,75.0,66.8,68.2,65.3,58.8,96,75,40,29.95,29.86,12,2,12,0.00
2014-10-19,88.5,75.8,65.8,69.0,66.8,62.3,94,75,43,29.99,29.91,16,3,16,0.00
2014-10-20,84.7,77.1,69.2,72.1,66.9,63.1,93,72,51,30.00,29.89,13,3,13,0.00
2014-10-21,82.7,73.6,68.3,73.8,70.5,67.0,98,90,74,29.93,29.86,22,4,22,1.32
2014-10-22,86.2,75.6,69.7,73.7,71.1,69.1,98,87,61,29.94,29.85,12,2,12,0.01
2014-10-23,78.2,75.9,73.1,71.5,68.3,65.3,94,78,67,29.92,29.84,20,8,20,0.01
2014-10-24,79.0,76.7,74.7,69.4,68.0,66.2,77,75,71,29.89,29.79,25,14,25,0.01
2014-10-25,82.2,73.3,64.1,66.9,64.7,61.3,92,76,51,29.91,29.82,18,7,18,0.00
2014-10-26,83.0,73.0,64.7,66.0,63.0,53.8,92,73,41,29.99,29.85,15,5,15,0.00
2014-10-27,80.7,72.9,64.2,68.3,64.9,62.1,94,77,55,30.06,29.95,15,3,15,0.01
2014-10-28,81.9,75.5,68.2,68.7,66.7,62.6,89,75,61,30.11,30.03,17,5,17,0.00
2014-10-29,84.5,77.5,71.7,71.2,68.2,65.5,88,74,57,30.07,29.94,12,3,12,0.00
2014-10-30,87.0,75.9,67.7,70.9,67.6,63.3,97,78,50,29.95,29.82,12,2,12,0.00
2014-10-31,83.1,76.0,65.3,70.6,65.5,53.2,96,71,59,29.85,29.72,18,9,18,0.00
2014-11-1,72.0,63.7,52.9,59.6,50.3,36.2,92,63,41,30.11,29.85,29,10,29,0.00
2014-11-2,68.0,57.8,48.3,52.8,45.2,39.4,75,64,42,30.23,30.10,23,8,23,0.00
2014-11-3,74.7,66.2,54.0,59.9,54.0,45.7,81,65,54,30.26,30.18,23,10,23,0.00
2014-11-4,77.0,73.7,70.8,63.6,60.2,55.7,70,63,54,30.23,30.12,24,12,24,0.00
2014-11-5,79.1,75.5,71.5,68.6,65.6,63.1,89,72,63,30.17,30.05,25,12,25,0.06
2014-11-6,81.4,75.5,68.2,68.6,64.8,61.0,91,70,51,30.08,29.93,12,3,14,0.00
2014-11-7,84.2,71.5,64.1,68.3,64.9,62.1,94,81,52,29.95,29.85,15,3,15,0.00
2014-11-8,80.7,72.1,64.7,71.0,67.2,62.9,95,85,63,29.90,29.79,16,5,16,0.09
2014-11-9,67.9,65.6,63.5,67.3,64.8,62.7,98,97,95,29.87,29.78,12,2,13,0.32
2014-11-10,78.2,67.4,62.6,68.2,64.3,60.7,99,91,69,29.91,29.82,13,4,13,0.14
2014-11-11,78.6,69.0,59.8,66.6,60.8,54.5,95,77,53,29.90,29.82,20,6,20,0.00
2014-11-12,84.3,70.5,60.6,67.3,62.6,56.1,96,77,54,29.99,29.89,15,6,15,0.00
2014-11-13,84.9,73.0,63.6,69.8,65.6,62.4,97,79,52,30.00,29.90,11,3,11,0.01
2014-11-14,82.1,69.5,61.9,66.3,63.3,57.7,97,83,46,30.06,29.92,14,4,14,0.01
2014-11-15,79.1,69.4,60.4,68.3,64.4,59.3,96,85,68,30.15,30.03,14,4,15,0.00
2014-11-16,79.9,74.3,68.6,71.6,68.3,63.5,89,82,73,30.15,30.00,15,5,15,0.00
2014-11-17,86.8,78.4,70.8,76.1,72.3,66.6,97,82,63,30.00,29.86,25,9,25,0.44
2014-11-18,72.5,64.1,52.9,69.8,61.2,51.3,95,91,85,30.17,29.90,20,9,20,0.10
2014-11-19,67.7,58.2,51.7,60.3,54.9,49.5,96,89,76,30.21,30.12,16,7,16,0.12
2014-11-20,75.5,66.7,57.9,62.3,58.3,55.6,95,76,53,30.17,30.07,23,9,23,0.00
2014-11-21,72.1,70.3,66.8,67.0,65.3,63.6,92,84,79,30.18,30.11,24,15,26,0.12
2014-11-22,77.1,74.9,70.1,71.1,68.5,66.4,92,81,76,30.18,30.03,31,18,31,0.01
2014-11-23,82.2,77.8,73.0,75.4,73.5,71.3,96,87,78,30.03,29.87,21,11,21,0.16
2014-11-24,86.9,79.8,75.5,78.2,75.8,74.2,96,88,71,30.00,29.89,15,7,15,0.02
2014-11-25,83.2,79.4,77.1,76.4,74.6,72.7,96,86,71,30.00,29.87,23,11,23,0.00
2014-11-26,78.3,67.1,54.5,75.6,63.2,48.3,95,88,68,30.15,29.85,24,10,24,0.10
2014-11-27,73.7,60.9,50.5,54.7,48.6,39.3,91,67,38,30.24,30.10,21,8,21,0.00
2014-11-28,67.4,58.2,48.9,55.4,49.6,43.4,87,73,63,30.22,30.13,20,10,20,0.00
2014-11-29,72.6,63.5,51.8,59.4,54.5,49.0,93,74,57,30.23,30.14,17,7,20,0.00
2014-11-30,75.9,71.7,68.0,63.1,58.9,54.8,72,64,50,30.26,30.17,21,12,21,0.00
2014-12-1,77.2,74.1,72.2,67.9,64.7,60.8,81,73,67,30.25,30.14,29,12,29,0.00
2014-12-2,77.6,74.3,71.3,68.6,67.0,65.0,86,78,71,30.15,30.07,25,13,25,0.00
2014-12-3,78.3,73.2,68.5,68.7,67.2,65.8,95,82,69,30.12,30.03,22,10,22,0.42
2014-12-4,78.6,74.8,71.2,70.4,68.8,66.9,89,82,73,30.12,30.04,23,12,23,0.13
2014-12-5,78.0,75.2,72.9,71.1,69.3,67.4,90,82,76,30.17,30.08,20,11,21,0.00
2014-12-6,78.5,73.1,66.4,68.1,65.6,63.7,92,78,63,30.17,30.04,16,4,16,0.00
2014-12-7,76.0,68.1,61.5,69.1,64.0,59.7,96,87,74,30.06,29.97,13,5,13,0.01
2014-12-8,76.4,64.5,56.5,66.3,60.4,55.2,98,87,64,30.05,29.94,10,3,10,0.01
2014-12-9,70.0,61.5,53.4,62.3,56.6,47.1,97,84,65,30.01,29.92,20,9,20,0.00
2014-12-10,66.1,55.8,48.2,49.8,43.9,37.9,90,67,36,30.11,30.01,20,7,20,0.00
2014-12-11,66.7,56.6,46.9,55.7,49.6,43.9,92,78,56,30.17,30.06,16,5,16,0.00
2014-12-12,67.8,57.2,48.8,54.3,48.8,40.1,94,75,37,30.21,30.10,12,4,12,0.00
2014-12-13,73.8,61.2,50.8,58.8,52.9,47.2,89,75,48,30.12,30.01,14,6,14,0.00
2014-12-14,76.1,62.9,52.3,52.5,49.0,43.8,82,63,37,30.07,29.98,10,3,12,0.00
2014-12-15,77.4,64.0,52.0,56.0,51.1,45.5,87,65,41,30.10,30.00,10,2,12,0.00
2014-12-16,77.1,65.2,54.0,58.5,54.4,50.5,89,70,49,30.17,30.07,10,2,12,0.00
2014-12-17,80.3,66.3,53.9,61.9,57.3,51.8,96,75,47,30.17,30.04,10,2,10,0.00
2014-12-18,76.2,65.0,55.9,62.0,57.0,50.6,93,76,57,30.14,30.02,14,3,14,0.00
2014-12-19,78.5,66.2,55.2,63.5,58.5,50.9,89,77,56,30.08,29.99,10,1,10,0.00
2014-12-20,77.3,69.4,61.4,65.2,62.5,59.5,95,80,59,30.08,29.99,17,3,17,0.00
2014-12-21,79.3,70.7,62.9,69.0,64.9,61.4,97,83,66,30.07,29.97,17,3,17,0.00
2014-12-22,81.6,73.7,66.5,70.5,67.8,64.1,94,82,63,30.00,29.89,17,5,17,0.00
2014-12-23,81.4,74.4,67.7,73.0,70.2,66.7,98,87,70,29.95,29.86,21,7,21,0.00
2014-12-24,83.6,77.4,74.1,74.8,72.7,70.7,95,86,71,29.92,29.85,20,11,21,0.05
2014-12-25,75.8,67.8,63.1,73.9,61.8,53.8,96,82,55,30.15,29.90,24,6,24,0.30
2014-12-26,73.0,67.8,61.1,70.7,65.3,58.1,98,92,85,30.17,30.09,13,4,13,0.04
2014-12-27,82.0,74.1,69.8,74.1,70.5,68.3,99,89,71,30.20,30.10,9,2,9,0.01
2014-12-28,81.7,73.5,66.6,72.9,69.1,65.6,98,87,67,30.15,30.05,14,3,14,0.00
2014-12-29,82.7,74.2,68.5,74.2,69.9,67.0,98,87,69,30.11,30.01,15,3,16,0.04
2014-12-30,83.2,73.9,67.9,72.3,69.5,66.4,96,87,63,30.16,30.05,10,2,10,0.00
2014-12-31,74.1,70.5,67.6,71.0,69.0,66.4,98,95,88,30.18,30.08,20,4,21,0.09
2015-1-1,75.9,72.1,69.5,71.5,69.6,68.3,97,92,81,30.18,30.08,13,3,13,0.38
2015-1-2,80.4,74.5,69.9,74.7,71.0,69.0,98,89,73,30.21,30.12,15,5,15,0.03